Regional Weather Roundup
Issued by NWS

Home | Current Version | Previous Version | Text Only | Print | Product List | Glossary Off
Versions: 1 2 3 4 5 6 7 8 9 10 11 12 13 14 15 16 17 18 19 20 21 22 23 24 25 26 27 28 29 30 31 32 33 34 35 36 37 38 39 40 41 42 43 44 45 46 47 48 49 50

141
ASUS45 KBOU 270007
RWRCO

WEATHER ROUNDUP FOR COLORADO
NATIONAL WEATHER SERVICE DENVER/BOULDER CO
600 PM MDT SUN MAR 26 2017

NOTE: "FAIR" INDICATES FEW OR NO CLOUDS BELOW 12000 FEET WITH NO
SIGNIFICANT WEATHER AND/OR OBSTRUCTIONS TO VISIBILITY.

COZ001>005-013-030-031-270100-
...NORTHWEST COLORADO...

CITY           SKY/WX    TMP DP  RH WIND       PRES   REMARKS
CRAIG          FAIR      51  19  28 W10       29.96S
HAYDEN         PTSUNNY   46  23  39 CALM      29.97S
MEEKER         FAIR      51  20  29 W3        29.96S
MOUNT WERNER   NOT AVBL
STEAMBOAT SPGS FAIR      44  29  57 NW3       29.98R
WALDEN         NOT AVBL
$$

COZ006>008-011-270100-
...WEST CENTRAL VALLEYS...

CITY           SKY/WX    TMP DP  RH WIND       PRES   REMARKS
GRAND JUNCTION FAIR      60  26  27 NW10      29.92S
MONTROSE       FAIR      54  32  43 SE10      29.97F
EAGLE          MOSUNNY   52  19  28 SW17      29.96R
RIFLE          FAIR      56  22  26 W12       29.93F
DELTA          FAIR      62  25  24 W5        29.94R
NUCLA          FAIR      55  27  33 SW5       30.00S
$$

COZ017>023-064>068-270100-
...SOUTHWEST COLORADO...

CITY           SKY/WX    TMP DP  RH WIND       PRES   REMARKS
DURANGO        FAIR      56  24  29 W16       29.95R
CORTEZ         CLOUDY    57  30  35 W10       29.97S
PAGOSA SPRINGS CLOUDY    49  30  48 SW3       30.00R
TELLURIDE      FAIR      40  26  55 W7        30.07R
WOLF CREEK PAS FOG       27  27 100 SW14      30.14R VSB 1/2 WCI  15
$$

COZ009-010-012-014-032>034-037-058>063-270100-
...CENTRAL COLORADO...

CITY           SKY/WX    TMP DP  RH WIND       PRES   REMARKS
ASPEN          PTSUNNY   45  24  43 NW10      29.97R
BUENA VISTA    FAIR      53  13  20 W17       29.92R
COPPER MTN     CLOUDY    32  21  64 NW12      30.06R WCI  23
BERTHOUD PASS  CLOUDY    21  10  63 NW17      30.05S WCI   7
COTTONWOOD PAS FAIR      43  14  31 W5G22     29.99R
GUNNISON       PTSUNNY   46  26  45 W15       29.99R
KREMMLING      CLOUDY    48  27  43 N12       29.97R
LEADVILLE      FAIR      37  16  42 NW14      30.00R
MONARCH PASS   PTSUNNY   28  21  74 W24G35    30.18R WCI  14
SALIDA         FAIR      55  21  27 W18G28    29.98R
SUNLIGHT       FAIR      30  23  74 SW7G18    30.09S WCI  23
WILKERSON PASS FOG       28  27  93 SE8       30.05S VSB<1/4 WCI  20
$$

COZ069>075-270100-
...SAN LUIS VALLEY/SANGRE DE CRISTO MOUNTAINS...

CITY           SKY/WX    TMP DP  RH WIND       PRES   REMARKS
ALAMOSA        CLOUDY    51  31  46 SE10      29.91R
LA VETA PASS   NOT AVBL
SAGUACHE       FAIR      52  18  25 NW20G28   29.95R
$$

COZ035-036-038>040-270100-
...NORTHERN COLORADO FRONT RANGE...

CITY           SKY/WX    TMP DP  RH WIND       PRES   REMARKS
DENVER INTL AP PTSUNNY   50  34  54 N12       29.93R
DMNS CITY PARK   N/A     49  35  58 N3G9      29.94R
AURORA         PTSUNNY   49  34  56 N6        29.94R
FRONT RANGE AP PTSUNNY   50  37  62 N8        29.94R
ERIE MUNI ARPT PTSUNNY   48  41  74 NW6       29.94R
BOULDER MUN AP CLOUDY    46  39  76 CALM      29.94S
CENTENNIAL     PTSUNNY   48  34  58 N9        29.94R
BROOMFIELD     PTSUNNY   46  41  81 W8        29.95S
FORT COLLINS   LGT RAIN  47  39  74 CALM      29.96R
LONGMONT       LGT RAIN  49  44  84 W6        29.97R
$$

COZ041-046-047-076>085-087-088-270100-
...PIKES PEAK/PALMER DIVIDE AND SOUTHERN FOOTHILLS...

CITY           SKY/WX    TMP DP  RH WIND       PRES   REMARKS
COLO. SPRINGS  PTSUNNY   50  31  48 N14       29.94R
A. F. ACADEMY  FAIR      46  33  60 N20       29.93R
SCHRIEVER AFB  PTSUNNY   48  33  55 N16G25    29.94R
ELLICOTT         N/A    N/A N/A N/A NE12      29.93R
FALCON         FAIR      47  32  56 N14       29.96R
FORT CARSON    LGT RAIN  45  40  83 SW9       29.94R
LIMON          FAIR      50  34  54 N12       29.92S
MONUMENT HILL  CLOUDY    41  32  70 N9        29.96S
TRINIDAD       FAIR      50  38  63 N13       29.94R
$$

COZ042>045-048>051-090-091-270100-
...NORTHEAST COLORADO...

CITY           SKY/WX    TMP DP  RH WIND       PRES   REMARKS
GREELEY ARPT   CLOUDY    50  35  56 NE8       29.95R
AKRON          FAIR      52  35  52 NW12      29.90S
BURLINGTON     CLOUDY    49  40  71 NE6       29.90S
WRAY           NOT AVBL
STERLING       FAIR      55  37  50 N14       29.88S
HOLYOKE        FAIR      55  36  47 NW5       29.89S
FORT MORGAN    FAIR      51  34  52 N7        29.92R
$$

COZ086-089-092>099-270100-
...SOUTHEAST COLORADO...

CITY           SKY/WX    TMP DP  RH WIND       PRES   REMARKS
PUEBLO         LGT RAIN  54  35  48 N10G20    29.92R
LA JUNTA       FAIR      52  39  61 NE12      29.91R
LAMAR          CLOUDY    47  38  71 NE6       29.89R
SPRINGFIELD      N/A     45  35  68 N18       29.89R
$$




USA.gov is the U.S. government's official web portal to all federal, state and local government web resources and services.